カタログに戻る

FENGYUN 1C DEB

運用中PO
NORAD 32129·DEBRIS·🇨🇳 China

打ち上げ May 10, 1999 から Taiyuan Satellite Launch Center

Loading…

次のパス (今後24時間)

TLE

最新Source: Space-Track

元期: Sep 14, 2026, 21:07 UTC

1 32129U 99025CRX 26257.88010586  .00003803  00000-0  14107-2 0  9999
2 32129  99.0734  32.7929 0064370 312.8479 199.5149 14.31695161981741

AllMySatでFENGYUN 1C DEBをリアルタイム追跡

Download on the App Store